Theta_e
343 344 343 344 344 344 344 343 344 344 345 344 344 346 346 348 349 350 349 341 338 338 335 337 339 338 336 332 333 333 332 341 338 327 323 326 328 328 328 327 324 321 320
345 344 342 342 343 343 344 344 343 344 343 344 345 347 347 348 349 348 345 341 334 334 329 333 337 336 333 327 330 331 337 340 336 330 324 323 324 325 326 326 325 322 319
346 343 344 342 341 343 344 344 343 343 345 346 345 343 347 346 341 339 339 332 327 326 321 321 327 330 325 321 330 332 332 330 324 321 321 321 321 322 325 325 325 322 319
344 342 342 342 342 344 341 341 342 344 344 346 343 343 347 338 335 337 336 329 321 317 314 317 321 323 327 323 329 332 329 324 322 322 322 322 322 322 324 325 324 321 320
341 340 342 343 343 342 340 341 344 338 339 343 335 347 339 333 333 333 329 321 319 315 313 314 314 317 322 320 322 326 325 323 322 323 323 324 325 322 321 321 320 322 321
338 340 341 340 340 341 341 341 345 343 347 346 347 347 331 330 329 327 323 321 313 310 310 312 315 311 314 318 321 323 324 324 323 323 325 322 309 313 318 318 322 322 322
339 339 340 341 342 341 342 342 345 347 347 347 347 342 329 328 325 325 325 320 312 310 311 311 310 310 310 315 320 322 324 325 325 324 315 307 309 313 315 316 317 319 318
339 339 340 340 341 341 346 342 346 346 346 347 347 333 331 329 327 324 325 319 312 316 316 315 316 316 315 314 310 308 308 309 308 308 309 308 308 309 310 313 317 317 316
342 339 338 339 339 341 345 349 349 346 345 347 347 333 329 331 331 326 322 320 318 318 319 321 323 323 315 314 314 311 310 310 311 313 313 313 312 311 308 308 313 314 313
349 349 345 341 339 339 340 347 348 349 349 347 345 334 330 331 330 327 321 324 319 317 319 322 325 323 312 312 312 312 310 312 313 315 315 315 315 313 312 309 309 310 311
350 349 349 345 347 346 345 348 349 350 350 348 344 336 331 329 328 324 322 322 318 317 319 319 320 314 310 310 309 312 312 313 315 316 317 316 315 315 313 312 311 312 313
350 350 349 349 348 348 348 349 350 351 349 347 345 337 331 330 324 320 322 322 319 317 316 316 313 311 310 309 309 309 311 312 315 316 316 316 316 315 313 313 313 313 312
350 349 350 350 350 349 351 352 352 351 350 348 347 343 328 328 321 316 320 320 318 317 316 315 312 314 319 311 308 308 308 311 314 315 315 315 315 315 313 313 314 313 312
349 349 349 350 350 350 351 351 352 351 350 349 347 348 331 327 322 314 313 316 315 319 320 322 321 322 322 318 310 308 309 312 313 314 314 314 315 314 313 313 313 313 311
349 349 349 350 350 349 349 349 350 349 350 348 348 349 341 325 322 316 312 312 312 315 320 322 323 323 323 321 316 310 309 310 313 313 312 313 313 312 313 312 313 313 311
349 349 349 350 350 351 350 349 352 352 353 353 349 348 349 337 326 323 314 312 312 314 317 318 319 320 321 321 320 314 312 313 315 315 316 314 314 313 312 313 313 312 310
350 350 351 351 351 350 351 349 349 351 351 354 351 349 350 346 331 327 326 316 311 312 315 316 316 317 318 320 320 320 315 317 318 317 317 317 317 317 314 313 313 312 311
351 352 352 352 351 351 349 345 346 347 349 348 347 349 351 348 340 328 328 328 319 312 311 312 313 314 315 316 318 320 319 317 318 320 319 318 317 317 317 313 313 313 311
353 353 353 352 352 349 347 344 343 345 347 348 348 346 349 350 345 337 330 327 325 318 315 313 312 313 313 313 314 315 318 317 315 319 322 320 319 318 318 316 313 313 311
355 356 355 354 353 353 348 344 343 343 345 347 346 343 345 348 350 342 326 324 324 322 318 319 319 317 315 314 314 313 314 315 316 320 322 323 321 319 318 317 314 314 313
359 360 359 355 356 355 355 354 349 345 342 342 343 344 342 345 347 349 349 329 323 323 323 321 322 324 325 326 324 318 314 313 313 315 322 323 323 321 320 318 316 314 313
357 352 354 355 357 356 354 354 356 357 356 350 344 344 344 344 345 346 347 348 348 339 328 325 325 325 325 325 326 327 327 325 321 314 315 320 324 324 321 319 318 315 313
343 336 338 339 342 348 345 354 356 359 360 359 356 352 350 346 344 345 345 344 346 347 348 345 338 330 328 327 328 328 327 327 326 326 325 317 317 323 324 320 318 316 314
327 350 342 338 338 337 338 341 343 355 361 362 361 359 357 354 351 349 349 347 346 346 346 345 342 338 334 331 329 329 329 329 328 326 326 325 321 316 321 323 320 317 315
318 323 346 339 338 341 338 338 343 352 360 363 362 360 360 359 358 356 354 352 350 348 347 345 342 339 335 332 330 329 325 325 324 323 323 324 324 319 314 319 323 318 315
318 318 322 331 348 338 337 342 348 354 362 363 361 360 360 359 359 358 357 356 354 352 351 349 346 341 336 334 332 329 326 326 325 324 322 321 322 320 316 316 321 320 316
Wind_Speed
18 18 16 18 18 20 18 20 18 14 12 13 13 11 10 11 9 10 10 8 8 8 6 5 8 9 8 7 7 6 10 12 11 9 5 8 7 7 4 3 4 7 9
17 18 17 16 16 19 20 17 17 15 14 13 11 9 9 11 10 10 9 9 7 7 6 7 9 10 9 9 8 6 9 9 8 5 6 7 6 6 5 5 1 2 6
17 16 19 18 17 19 19 18 15 13 12 12 10 7 10 8 9 9 7 6 7 7 7 7 8 8 7 3 5 9 11 9 4 1 7 6 3 5 7 7 5 2 3
15 17 20 21 21 20 20 16 13 12 11 11 9 6 8 9 9 8 7 7 7 7 6 7 7 6 6 4 7 9 7 6 6 5 5 4 3 4 6 6 6 6 1
16 17 17 21 22 20 19 17 15 14 13 9 9 7 9 10 9 8 8 6 6 6 7 8 7 7 7 7 7 8 8 6 8 8 7 5 7 9 9 8 9 9 5
18 19 22 23 22 20 20 19 19 16 15 10 9 8 10 10 10 9 7 6 5 6 8 8 7 6 7 7 8 8 5 6 9 8 7 8 5 5 5 6 10 11 7
21 23 25 25 24 21 20 19 18 15 13 9 10 12 12 11 10 10 8 6 6 8 8 8 7 7 6 6 7 7 8 9 9 9 8 3 3 3 3 3 4 9 8
28 26 27 26 25 24 21 20 18 17 15 14 16 14 14 13 11 10 8 7 10 9 8 8 6 5 5 4 3 5 5 5 5 4 2 2 4 1 1 1 2 1 1
32 30 29 29 26 24 22 22 21 17 15 16 14 15 16 15 13 11 10 9 12 10 9 10 7 2 2 2 1 2 5 5 5 6 6 6 5 5 5 1 2 3 2
35 28 29 28 28 28 23 22 22 18 16 17 17 16 16 16 14 14 13 12 11 12 11 12 10 5 3 2 2 3 5 5 4 4 4 3 3 3 5 3 2 1 2
35 30 29 31 27 25 23 21 19 19 19 19 18 17 18 18 17 17 17 15 12 12 12 11 9 7 3 3 4 5 6 7 6 4 3 3 1 2 2 0 0 2 3
35 33 31 30 28 27 24 23 23 22 22 20 18 18 20 19 19 21 21 17 13 13 12 10 10 7 3 5 6 8 10 9 8 6 5 6 4 4 3 3 1 4 6
37 33 31 31 30 28 27 27 28 26 24 20 21 22 23 21 22 22 22 20 18 15 13 12 12 9 6 7 9 10 10 11 10 9 7 5 6 7 6 5 5 7 7
36 37 34 31 29 28 28 28 27 27 27 26 25 24 23 24 24 24 24 24 22 19 18 17 16 14 12 11 12 12 12 12 12 10 7 7 9 9 8 7 7 8 8
35 34 36 35 32 30 31 30 30 29 28 26 22 23 24 26 24 23 23 25 23 21 20 22 23 22 20 18 14 15 15 16 15 11 11 10 9 11 10 10 9 10 9
38 37 36 37 35 33 33 33 33 31 29 26 24 21 20 22 22 20 21 22 23 25 26 27 27 26 24 22 19 17 18 18 16 15 13 11 11 11 13 12 13 13 12
38 38 38 38 38 37 37 37 36 33 31 28 27 24 23 21 22 23 22 22 25 30 35 32 30 29 28 26 25 22 21 19 18 19 17 15 12 14 14 15 15 14 15
38 39 38 37 39 40 39 38 37 36 33 28 27 26 26 26 25 25 24 25 32 37 40 39 37 34 32 30 30 29 25 24 26 25 24 21 19 18 18 18 17 14 13
39 41 41 37 37 37 37 38 38 38 36 33 30 29 28 26 27 28 29 35 37 39 40 40 39 37 35 34 33 32 31 29 29 31 29 26 24 24 22 20 20 18 15
31 38 42 41 38 37 38 40 40 40 40 37 35 31 31 31 33 35 36 37 39 40 41 40 37 37 37 36 36 36 35 35 33 33 33 30 28 27 26 24 22 22 18
21 26 33 31 34 36 37 38 39 40 42 42 39 36 32 32 34 34 35 39 42 43 43 41 40 40 38 36 36 37 38 38 37 38 36 34 31 32 29 28 25 24 21
19 11 14 15 21 32 37 40 41 41 40 39 41 39 36 32 33 35 37 38 39 41 42 42 43 43 42 40 39 38 37 37 37 37 38 38 36 34 35 33 31 29 26
17 31 36 35 29 22 33 43 47 45 44 39 39 42 42 39 35 34 35 36 38 37 38 41 43 45 45 44 44 42 43 43 40 37 36 37 38 37 38 39 37 34 32
18 20 36 23 30 42 49 56 55 55 45 41 35 37 41 41 38 35 33 33 33 32 32 34 36 37 40 41 40 40 40 40 39 40 38 35 35 39 39 40 41 39 36
16 20 24 30 31 37 60 58 52 55 47 43 34 36 38 39 37 36 34 33 31 31 32 32 31 33 31 28 30 26 24 23 22 26 28 33 35 35 36 41 42 42 39
20 23 23 26 36 27 29 36 47 48 42 41 33 33 36 37 33 30 32 34 33 32 31 31 31 30 28 26 26 22 19 19 19 21 21 25 31 32 31 35 38 44 43
Wind_Direction
214 211 212 211 211 212 214 215 214 226 230 238 246 249 242 244 232 231 251 262 266 256 239 225 231 242 261 273 250 241 226 220 219 176 169 168 182 172 168 157 84 60 43
205 206 204 201 208 210 206 204 212 220 231 224 224 227 227 223 241 242 247 260 260 232 223 222 236 249 260 274 252 236 196 194 222 211 175 165 180 185 188 198 198 49 46
197 203 206 205 209 195 191 195 202 213 215 208 198 206 234 247 248 227 231 243 233 222 223 221 233 245 262 242 161 168 158 168 177 164 170 174 190 212 235 234 209 219 27
200 200 203 210 196 186 183 187 196 195 179 190 192 231 243 251 224 220 229 231 220 212 205 205 209 213 219 197 179 176 174 174 171 165 174 189 227 211 201 220 230 207 296
196 197 192 181 180 187 189 190 190 186 191 211 215 235 246 227 222 222 218 217 215 209 202 199 199 207 213 199 195 195 198 205 197 199 196 222 255 237 227 238 237 225 249
190 189 183 182 186 192 192 197 201 210 204 215 217 243 230 217 209 205 205 216 201 190 191 179 182 177 184 185 188 191 195 241 223 214 249 283 250 214 194 200 203 212 242
189 186 188 191 194 196 194 199 211 213 208 232 253 243 215 206 205 199 197 198 197 186 172 168 166 157 159 176 190 198 203 208 224 256 272 243 198 201 202 179 209 227 239
189 192 191 195 196 198 202 206 210 210 219 235 239 219 204 204 198 201 200 200 194 182 177 177 167 163 136 136 159 178 184 179 169 146 98 100 104 102 344 190 193 196 311
199 199 201 201 202 205 212 209 212 221 227 236 232 217 209 210 211 211 208 207 204 193 197 200 202 179 167 143 127 165 156 150 136 123 112 90 73 56 51 359 258 289 273
204 204 202 210 213 216 216 215 214 225 235 236 226 218 217 221 223 227 218 220 216 214 215 214 212 231 201 198 199 203 197 185 182 174 155 126 63 30 23 20 51 73 173
211 210 211 210 216 220 220 215 220 228 231 230 224 220 219 224 231 235 228 224 228 224 227 226 217 221 215 223 217 214 215 208 207 209 248 257 300 341 313 47 13 276 285
217 213 212 216 218 219 219 219 223 227 228 228 223 225 225 226 232 234 231 231 233 233 232 223 213 216 213 226 228 229 227 227 223 233 250 253 258 302 250 223 273 286 283
216 216 218 215 216 219 218 219 221 223 226 232 231 231 228 228 230 227 227 231 230 229 219 215 212 206 218 230 229 235 235 231 232 245 249 243 265 278 251 251 264 309 297
220 216 216 219 218 220 221 223 226 228 232 235 233 232 230 229 229 225 224 224 225 222 213 210 214 223 232 236 229 233 231 231 241 249 249 256 272 273 264 266 272 289 284
224 221 217 215 216 218 223 226 227 233 238 241 242 239 232 231 230 229 230 228 225 221 220 223 227 234 236 236 235 234 232 235 240 246 247 248 267 272 265 265 270 280 269
222 221 223 219 216 219 224 229 232 238 242 244 242 246 248 246 243 241 238 236 235 232 230 231 233 239 243 240 238 240 238 237 238 235 239 237 249 275 265 262 264 279 266
226 225 224 226 224 221 224 229 232 236 239 239 238 238 237 236 235 234 235 238 239 236 237 240 241 242 245 245 242 242 243 244 241 241 240 240 244 257 267 260 262 272 269
232 232 231 231 230 229 227 230 235 238 240 238 235 235 230 227 230 230 230 234 234 234 237 240 243 245 247 248 247 246 248 244 242 242 244 244 243 248 258 257 253 264 264
236 238 235 236 240 239 236 235 238 242 243 244 242 240 239 236 231 232 232 236 238 240 241 244 245 247 249 251 251 250 250 249 248 245 246 247 247 245 251 257 249 246 243
240 242 241 238 238 242 244 243 244 245 247 246 247 245 240 237 237 235 236 238 242 244 246 248 252 254 254 254 256 255 255 251 248 244 244 246 245 245 249 251 250 242 251
236 239 248 253 252 254 254 255 254 254 256 255 253 252 250 245 247 247 247 248 249 250 250 252 253 255 257 258 258 258 257 257 253 249 247 248 247 245 248 249 249 243 241
204 237 269 271 280 277 277 270 265 264 265 263 262 261 259 254 248 248 249 252 255 257 260 261 262 263 263 264 264 263 263 262 259 255 252 251 252 247 246 246 243 236 233
251 244 261 260 257 264 288 276 272 267 266 266 264 264 264 260 257 254 255 256 258 261 262 264 266 266 267 266 267 267 266 267 268 265 260 255 251 250 246 243 241 236 230
278 252 233 257 258 275 277 269 268 268 266 265 266 266 266 266 264 262 264 265 266 268 268 267 268 270 270 271 271 271 272 271 270 271 267 263 259 257 254 247 242 237 232
247 252 221 199 211 266 254 247 254 259 263 263 266 268 268 270 269 268 267 267 270 273 273 274 273 272 274 279 277 277 274 271 275 276 264 254 253 255 255 251 247 234 227
251 242 244 248 242 246 235 252 257 255 261 263 266 268 270 271 275 276 274 273 272 273 278 280 280 283 283 281 279 275 269 270 268 263 254 247 246 245 248 248 248 237 226